This demonstration page uses our WeatherBlox Daily Observations layout. Learn more.

Left ArrowRight Arrow

39.01783, -85.05884

Hourly Observations for January 17, 2020

Temp ( °F °C ) Dew Point ( °F °C ) Humidity (%) Winds ( mph kmh ) Pressure ( in mb ) Visibility ( mi km ) Precip ( " mm )
12:45 am 00:45 Mostly Cloudy 25 -3.9 17 -8.3 72 72 N 9 15 30.76 1042 10 16 0.00 0.00
12:52 am 00:52 Mostly Cloudy 25 -3.9 17 -8.3 72 72 N 10 17 30.72 1040 10 16 0.00 0.00
1:26 am 01:26 Cloudy 24 -4.4 16 -8.9 71 71 NNE 14 22 30.76 1042 10 16 0.00 0.00
1:52 am 01:52 Cloudy 24 -4.4 16 -8.9 71 71 NNE 9 15 30.72 1040 10 16 0.00 0.00
2:52 am 02:52 Cloudy 23 -5 15 -9.4 72 72 NNE 13 20 30.76 1042 10 16 0.00 0.00
3:52 am 03:52 Cloudy 23 -5 15 -9.4 72 72 NE 13 20 30.76 1042 10 16 0.00 0.00
4:52 am 04:52 Cloudy 23 -5 14 -10 68 68 NE 16 26 30.75 1041 10 16 0.00 0.00
5:52 am 05:52 Cloudy 24 -4.4 14 -10 65 65 ENE 14 22 30.76 1042 10 16 0.00 0.00
6:04 am 06:04 Cloudy 24 -4.4 14 -10 65 65 NE 12 19 30.80 1043 10 16 0.00 0.00
6:52 am 06:52 Cloudy 24 -4.4 14 -10 65 65 NE 12 19 30.78 1042 10 16 0.00 0.00
7:52 am 07:52 Mostly Cloudy 24 -4.4 15 -9.4 68 68 ENE 12 19 30.77 1042 10 16 0.00 0.00
8:52 am 08:52 Cloudy 25 -3.9 15 -9.4 66 66 E 13 20 30.78 1042 10 16 0.00 0.00
9:52 am 09:52 Cloudy 26 -3.3 16 -8.9 66 66 E 13 20 30.76 1042 10 16 0.00 0.00
10:52 am 10:52 Mostly Cloudy 28 -2.2 16 -8.9 60 60 E 13 20 30.76 1042 10 16 0.00 0.00
11:52 am 11:52 Mostly Cloudy 29 -1.7 16 -8.9 58 58 E 12 19 30.72 1040 10 16 0.00 0.00
12:52 pm 12:52 Cloudy 30 -1.1 15 -9.4 54 54 E 13 20 30.68 1039 10 16 0.00 0.00
1:52 pm 13:52 Cloudy 32 0 16 -8.9 52 52 ESE 14 22 30.65 1038 10 16 0.00 0.00
2:52 pm 14:52 Cloudy 32 0 16 -8.9 52 52 E 12 19 30.62 1037 10 16 0.00 0.00
3:52 pm 15:52 Cloudy 32 0 15 -9.4 50 50 ESE 12 19 30.60 1036 10 16 0.00 0.00
4:52 pm 16:52 Cloudy 33 0.6 16 -8.9 49 49 E 15 24 30.55 1035 10 16 0.00 0.00
5:52 pm 17:52 Cloudy 33 0.6 15 -9.4 47 47 E 12 19 30.54 1034 10 16 0.00 0.00
6:52 pm 18:52 Cloudy 33 0.6 16 -8.9 49 49 ESE 14 22 30.51 1033 10 16 0.00 0.00
7:52 pm 19:52 Cloudy 33 0.6 16 -8.9 49 49 E 13 20 30.48 1032 10 16 0.00 0.00
8:52 pm 20:52 Cloudy 33 0.6 16 -8.9 49 49 SE 10 17 30.45 1031 10 16 0.00 0.00
9:52 pm 21:52 Cloudy 33 0.6 17 -8.3 52 52 SE 14 22 30.43 1030 10 16 0.00 0.00
10:52 pm 22:52 Cloudy 33 0.6 17 -8.3 52 52 E 14 22 30.33 1027 10 16 0.00 0.00
11:52 pm 23:52 Cloudy 34 1.1 18 -7.8 52 52 SE 15 24 30.30 1026 10 16 0.00 0.00

Powered by AerisWeather